Location: Spruce Knob
(38.6995°N, 79.5330°W)
Time: 05:08:49
(UTC-05:00)

XW-2F - Visible Passes

Search period start: 05 March 2024 00:00
Search period end: 15 March 2024 01:00
Orbit: 325 x 331 km, 97.4° (Epoch: 04 March)

Date Brightness Start Highest point End Pass type
(mag) Time Alt. Az. Time Alt. Az. Time Alt. Az.
05 Mar ? 19:03:14 10° SSE 19:05:52 65° ENE 19:08:30 10° N visible
06 Mar ? 19:20:44 10° S 19:23:19 54° W 19:25:54 10° NNW visible
07 Mar ? 19:38:01 10° SSW 19:40:17 26° W 19:42:35 10° NW visible
08 Mar ? 19:55:17 10° SW 19:56:49 14° W 19:58:23 10° WNW visible
10 Mar ? 19:55:41 10° SSE 19:58:07 40° ENE 20:00:35 10° N visible
11 Mar ? 20:10:34 10° SSE 20:13:07 83° ENE 20:15:42 10° N visible
12 Mar ? 20:25:10 10° S 20:27:38 48° W 20:30:09 10° NNW visible
13 Mar ? 20:39:30 10° SSW 20:41:42 26° W 20:43:56 10° NW visible
14 Mar ? 20:53:36 10° SW 20:55:17 16° W 20:56:59 10° NW visible
